Regional Weather Roundup
Issued by NWS Grand Forks, ND

Home | Current Version | Previous Version | Graphics & Text | Print | Product List | Glossary On
Versions: 1 2 3 4 5 6 7 8 9 10 11 12 13 14 15 16 17 18 19 20 21 22 23 24 25 26 27 28 29 30 31 32 33 34 35 36 37 38 39 40 41 42 43 44 45 46 47 48 49 50
000
ASUS43 KFGF 241831
RWRFGF
PRAIRIE TO PINES  WEATHER ROUNDUP
NATIONAL WEATHER SERVICE EASTERN NORTH DAKOTA/GRAND FORKS ND
100 PM CDT SAT JUN 24 2017

 **SATELLITE DATA USED TO AUGMENT SKY COVER AT AUTOMATED STATIONS**
 *****  WEATHER ACROSS EASTERN NORTH DAKOTA  *****

CITY           SKY/WX    TMP DP  RH WIND       PRES   REMARKS
GRAND FORKS    LGT RAIN  55  53  93 W14G26    30.03R FOG
6HR MIN TEMP:  51; 6HR MAX TEMP:  57; 6HR PCP:  0.01;

GRAND FRKS AFB LGT RAIN  54  49  85 NW14G26   30.04S
DEVILS LAKE    CLOUDY    55  46  71 NW22G29   30.11S
6HR MIN TEMP:  47; 6HR MAX TEMP:  53;

FARGO          CLOUDY    60  44  55 NW18G25   30.05R
WAHPETON ARPT  MOCLDY    61  43  51 NW15G24   30.06F
$$

 ***** WEATHER ACROSS CENTRAL AND WESTERN NORTH DAKOTA  *****

CITY           SKY/WX    TMP DP  RH WIND       PRES   REMARKS
BISMARCK       FAIR      61  38  42 NW21G31   30.22R
6HR MIN TEMP:  50; 6HR MAX TEMP:  61;

MINOT          CLOUDY    57  43  59 NW23G30   30.21R
6HR MIN TEMP:  47; 6HR MAX TEMP:  57;

JAMESTOWN      CLOUDY    57  41  55 NW20G31   30.12R
6HR MIN TEMP:  48; 6HR MAX TEMP:  58;

MINOT AFB      PTSUNNY   57  41  54 N18G29    30.20R
GARRISON         N/A     56  41  57 N20G29    30.21S
WILLISTON      PTSUNNY   64  35  34 N18G31    30.29S
6HR MIN TEMP:  47; 6HR MAX TEMP:  64;

DICKINSON      FAIR      62  31  31 N20G36    30.25R
6HR MIN TEMP:  43; 6HR MAX TEMP:  62;

HETTINGER      FAIR      65  30  27 NW22G35   30.26S
6HR MIN TEMP:  46; 6HR MAX TEMP:  65;

$$

 *****  OTHER AIRPORT OBSERVATIONS IN OUR AREA  *****

CITY           SKY/WX    TMP DP  RH WIND       PRES   REMARKS
WALHALLA       NOT AVBL
GRAFTON AIRPOR CLOUDY    54  52  94 NW21      30.05R FOG
VALLEY CITY AR CLOUDY    57  43  58 NW18G28   30.12R
CANDO          NOT AVBL
CAVALIER APRT  NOT AVBL
GWINNER        MOCLDY    63  43  48 NW20G25   30.11R
SHEYENNE NWR     N/A     61  42  49 NW15      29.95S
ROLLA            N/A     50  50 100 NW22G29   30.15R
 ***** THE ABOVE OBSERVATIONS ARE NON NWS ARE NOT QUALITY
       CONTROLLED AND MAY MIS-REPORT RAIN FOR SNOW...
$$

  *****  WEATHER ACROSS NORTHERN MINNESOTA  *****

CITY           SKY/WX    TMP DP  RH WIND       PRES   REMARKS
FLAG ISLAND    CLOUDY    57  48  72 NW10      29.95R
WARROAD        CLOUDY    54  50  87 W3        29.98S
ROSEAU         PTSUNNY   57  52  82 W5        29.97S
HALLOCK        CLOUDY    55  54  94 NW21G26   29.99R FOG
THF RVR FALLS  LGT RAIN  54  48  82 W12       30.02R
BAUDETTE       FAIR      60  50  69 NW12      29.96R
6HR MIN TEMP:  48; 6HR MAX TEMP:  61;

WASKISH        CLOUDY    61  46  59 W9        29.96S
CROOKSTON      RAIN      54  52  94 NW20      30.03S
STEPHEN NDAWN    N/A     55  54  94 NW15        N/A
GREENBUSH NDAW   N/A     57  50  77 W10         N/A
$$
  *****  WEATHER ACROSS CENTRAL AND WEST MINNESOTA  *****

CITY           SKY/WX    TMP DP  RH WIND       PRES   REMARKS
FOSSTON        CLOUDY    55  45  67 W14       30.02R
BEMIDJI        CLOUDY    58  44  60 W13       29.99S
PARK RAPIDS    CLOUDY    61  42  49 NW18G24   30.00R
6HR MIN TEMP:  49; 6HR MAX TEMP:  61; 6HR PCP: TRACE;

ELBOW LAKE     MOCLDY    54  48  80 NW14G23   30.07R
6HR MIN TEMP:  48; 6HR MAX TEMP:  58;

WADENA         FAIR      57  46  67 NW21      30.02S
DETROIT LAKES  FAIR      59  45  58 NW17G24   30.04S
MOORHEAD       FAIR      61  45  55 NW16G23   30.06S
FERGUS FALLS   FAIR      55  48  76 NW12      30.05R
MORRIS MN      PTSUNNY   63  43  48 NW16G26   30.05S
STAPLES        PTSUNNY   59  41  51 W15       30.01S
$$
  *****  WEATHER ELSEWHERE ACROSS MINNESOTA  *****

CITY           SKY/WX    TMP DP  RH WIND       PRES   REMARKS
DULUTH         CLOUDY    58  45  62 W13       29.94R
6HR MIN TEMP:  52; 6HR MAX TEMP:  58;

INTRNTL FALLS  CLOUDY    60  46  59 NW10      29.93S
6HR MIN TEMP:  52; 6HR MAX TEMP:  62;

ELY            CLOUDY    55  48  76 W13G18    29.91R
CLOQUET        PTSUNNY   59  39  47 W16       29.96R
WHEATON        PTSUNNY   59  43  55 NW15      30.09S
BRAINERD       CLOUDY    58  44  60 SW10      29.99S
6HR MIN TEMP:  51; 6HR MAX TEMP:  59;

HIBBING        CLOUDY    58  45  62 NW10      29.94R
6HR MIN TEMP:  50; 6HR MAX TEMP:  58; 6HR PCP: TRACE;

ALEXANDRIA     PTSUNNY   58  44  60 NW18G29   30.05R
6HR MIN TEMP:  49; 6HR MAX TEMP:  60; 6HR PCP:  0.01;

SAINT CLOUD    PTSUNNY   59  41  51 W28G35    30.02R
6HR MIN TEMP:  53; 6HR MAX TEMP:  64;

MINNEAPOLIS    PTSUNNY   63  40  42 W16G26    30.02S
6HR MIN TEMP:  55; 6HR MAX TEMP:  65;

$$

  *****  WEATHER ACROSS SOUTH DAKOTA  *****

CITY           SKY/WX    TMP DP  RH WIND       PRES   REMARKS
SIOUX FALLS    FAIR      71  44  37 NW23G35   30.10R
6HR MIN TEMP:  51; 6HR MAX TEMP:  71;

BROOKINGS      FAIR      63  42  46 NW23G30   30.11R
WATERTOWN      PTSUNNY   62  42  47 NW23G29   30.11R
6HR MIN TEMP:  50; 6HR MAX TEMP:  62;

HURON          FAIR      69  39  33 NW23G37   30.13S
6HR MIN TEMP:  49; 6HR MAX TEMP:  69;

SISSETON         N/A     61  41  47 NW22G30   30.08R
ABERDEEN       CLOUDY    63  41  44 NW20G29   30.14S
6HR MIN TEMP:  49; 6HR MAX TEMP:  63;

MITCHELL       FAIR      74  39  28 NW26G33   30.14S
PIERRE         FAIR      69  39  33 NW22G30   30.19F
6HR MIN TEMP:  49; 6HR MAX TEMP:  70;

MOBRIDGE       FAIR      68  36  30 NW24G32   30.16R
RAPID CITY     FAIR      72  32  23 NW23G31   30.27S
6HR MIN TEMP:  49; 6HR MAX TEMP:  72;

$$

  *****  SOME WEATHER IN NEARBY STATES *****

CITY           SKY/WX    TMP DP  RH WIND       PRES   REMARKS
GLASGOW MT     PTSUNNY   66  34  30 NW13      30.30S
6HR MIN TEMP:  43; 6HR MAX TEMP:  68;

GREAT FALLS MT FAIR      69  33  26 VRB7      30.33F
6HR MIN TEMP:  43; 6HR MAX TEMP:  69;

CHEYENNE WY    FAIR      66  37  34 VRB5      30.37S
6HR MIN TEMP:  51; 6HR MAX TEMP:  66;

SCOTTSBLUFF NE PTSUNNY   69  34  27 VRB5      30.32S
6HR MIN TEMP:  55; 6HR MAX TEMP:  70;

OMAHA NE       FAIR      78  37  22 W21G26    30.17S
6HR MIN TEMP:  55; 6HR MAX TEMP:  79;

DES MOINES IA  FAIR      74  38  27 W15G23    30.14F
6HR MIN TEMP:  57; 6HR MAX TEMP:  75;

DAVENPORT IA   FAIR      70  45  40 W16G25    30.10R
6HR MIN TEMP:  58; 6HR MAX TEMP:  70;

CHICAGO IL     PTSUNNY   73  49  42 W12G22    29.99R
6HR MIN TEMP:  63; 6HR MAX TEMP:  73;

EAU CLAIRE WI  PTSUNNY   64  41  42 W18G25    29.98S
6HR MIN TEMP:  54; 6HR MAX TEMP:  65;

LA CROSSE WI   PTSUNNY   70  43  37 NW21G26   30.02R
6HR MIN TEMP:  63; 6HR MAX TEMP:  71;

$$

  *****  SOME NATIONAL WEATHER *****

CITY           SKY/WX    TMP DP  RH WIND       PRES   REMARKS
LA GUARDIA NY  FAIR      85  56  37 W22G30    29.72R
6HR MIN TEMP:  70; 6HR MAX TEMP:  85; 6HR PCP:  0.18;

RALEIGH NC     PTSUNNY   87  71  58 SW8       29.94F HX  93
6HR MIN TEMP:  78; 6HR MAX TEMP:  90;

ATLANTA GA     PTSUNNY   81  73  76 W3        30.03F
6HR MIN TEMP:  73; 6HR MAX TEMP:  81; 6HR PCP:  0.23;

NEW ORLEANS LA TSTM      80  77  90 E14G20    30.05R
6HR MIN TEMP:  79; 6HR MAX TEMP:  90; 6HR PCP:  0.52;

OKLAHOMA CITY  PTSUNNY   82  48  30 E15G22    30.21F
6HR MIN TEMP:  70; 6HR MAX TEMP:  83;

ALBUQUERQUE NM CLOUDY    80  52  37 E17       30.24F
6HR MIN TEMP:  68; 6HR MAX TEMP:  80;

SALT LAKE CITY FAIR      82  37  20 VRB3      30.21S
6HR MIN TEMP:  62; 6HR MAX TEMP:  83;

LOS ANGELES CA CLOUDY    65  60  84 W12       29.92R
6HR MIN TEMP:  62; 6HR MAX TEMP:  69;

BOISE ID       FAIR



USA.gov is the U.S. government's official web portal to all federal, state and local government web resources and services.